"startDT [UTC]","vpos","CH4 [ppm]","stdev(CH4) [ppm]","CO2 [ppm]","stdev(CO2) [ppm]","H2O [ppm]","stdev(H2O)","p_LGR [torr]","T_LGR [C]","mt1_LGR [us]","mt2_LGR [us]","T_ECpre [C]","T_EC1 [C]","T_EC2 [C]","p_inlet [hPa]","p_in [hPa]","p_out [hPa]","T_inlet [C]","RH_inlet [%]","dwpt_inlet [C]","T_vent [C]","RH_vent [%]","dwpt_vent [C]","flow_vent [l min-1]","flow_inlet [l min-1]","dwpt_sample [C]","T_room [C]"
2012-05-23 00:00:00,0.0,1.8916,0.0009,404.16,0.19,11.8,18.5,138.04,31.40,24.64,36.42,0.96,-27.15,-26.07,-60,552,-928,26.6,15.1,-2.1,26.5,1.1,-32.9,5.73,2.35,-28.3,30.8
2012-05-23 00:01:00,0.0,1.8916,0.0011,404.20,0.23,10.2,14.3,138.04,31.40,24.64,36.41,0.96,-27.29,-24.18,-60,553,-929,26.6,15.2,-2.0,26.5,1.2,-31.8,5.73,2.34,-28.2,30.8
2012-05-23 00:02:00,0.0,1.8919,0.0009,404.19,0.19,10.3,15.0,138.04,31.40,24.64,36.42,0.83,-27.37,-22.18,-60,553,-929,26.6,15.1,-2.0,26.5,1.3,-30.8,5.73,2.35,-28.2,30.8
2012-05-23 00:03:00,0.0,1.8922,0.0009,404.23,0.19,11.7,17.4,138.04,31.40,24.64,36.41,0.79,-27.40,-20.23,-60,553,-929,26.6,15.1,-2.1,26.5,1.4,-30.2,5.73,2.35,-28.2,30.8
2012-05-23 00:04:00,0.0,1.8915,0.0008,404.20,0.21,11.1,17.4,138.04,31.41,24.64,36.42,0.88,-27.40,-18.37,-60,553,-928,26.6,15.1,-2.1,26.5,1.5,-30.0,5.73,2.35,-28.3,30.8
2012-05-23 00:05:00,0.0,1.8916,0.0009,404.19,0.18,9.2,14.2,138.04,31.41,24.64,36.42,0.93,-27.39,-16.59,-60,553,-929,26.6,15.1,-2.1,26.5,1.5,-30.0,5.73,2.35,-28.3,30.8
2012-05-23 00:06:00,0.0,1.8918,0.0009,404.23,0.18,7.9,14.7,138.04,31.41,24.64,36.41,0.96,-27.36,-14.90,-60,553,-929,26.6,15.1,-2.1,26.5,1.4,-30.2,5.73,2.34,-28.3,30.9
2012-05-23 00:07:00,0.0,1.8916,0.0010,404.17,0.21,10.0,13.9,138.04,31.41,24.64,36.42,0.87,-27.34,-13.31,-60,553,-929,26.6,15.1,-2.1,26.5,1.4,-30.1,5.73,2.34,-28.2,30.9
2012-05-23 00:08:00,0.0,1.8917,0.0009,404.18,0.18,5.7,12.8,138.04,31.41,24.64,36.41,0.79,-27.31,-11.80,-60,553,-929,26.6,15.0,-2.1,26.5,1.4,-30.3,5.73,2.35,-28.2,30.8
2012-05-23 00:09:00,0.0,1.8921,0.0008,404.19,0.22,11.7,19.8,138.04,31.41,24.64,36.42,0.85,-27.27,-10.36,-60,553,-928,26.6,15.1,-2.1,26.5,1.4,-30.5,5.73,2.34,-28.2,30.8
2012-05-23 00:10:00,0.0,1.8917,0.0008,404.25,0.20,13.2,19.3,138.04,31.41,24.64,36.41,0.92,-27.24,-9.00,-60,553,-929,26.6,15.1,-2.1,26.5,1.4,-30.7,5.73,2.34,-28.2,30.8
2012-05-23 00:11:00,0.0,1.8924,0.0008,404.20,0.21,3.2,7.7,138.04,31.42,24.64,36.42,0.95,-27.21,-7.71,-60,553,-929,26.6,15.1,-2.1,26.6,1.4,-30.7,5.73,2.34,-28.2,30.9
2012-05-23 00:12:00,0.0,1.8920,0.0010,404.14,0.17,14.3,19.0,138.04,31.42,24.64,36.42,0.96,-27.18,-6.48,-60,553,-929,26.6,15.0,-2.1,26.6,1.3,-30.8,5.73,2.34,-28.2,30.9
2012-05-23 00:13:00,0.0,1.8921,0.0008,404.17,0.18,10.3,17.0,138.04,31.42,24.64,36.42,0.87,-27.14,-5.31,-60,553,-929,26.7,15.0,-2.1,26.6,1.3,-30.9,5.73,2.34,-28.2,31.0
2012-05-23 00:14:00,0.0,1.8921,0.0008,404.13,0.21,10.6,15.3,138.04,31.42,24.64,36.42,0.82,-27.11,-4.19,-60,553,-929,26.7,15.0,-2.1,26.6,1.3,-31.0,5.73,2.34,-28.2,30.9
2012-05-23 00:15:00,0.0,1.8921,0.0009,404.15,0.21,9.7,16.8,138.04,31.43,24.64,36.42,0.88,-27.09,-3.13,-60,553,-929,26.7,15.0,-2.1,26.6,1.3,-31.0,5.73,2.35,-28.2,30.9
2012-05-23 00:16:00,0.0,1.8919,0.0011,404.21,0.20,14.6,20.0,138.04,31.43,24.64,36.41,0.92,-27.06,-2.12,-60,553,-929,26.7,14.9,-2.2,26.6,1.3,-31.2,5.73,2.34,-28.1,31.0
2012-05-23 00:17:00,0.0,1.8922,0.0009,404.17,0.22,15.9,21.5,138.04,31.43,24.64,36.42,0.94,-27.03,-1.17,-60,553,-929,26.7,14.9,-2.2,26.6,1.3,-31.1,5.73,2.35,-28.1,31.0
2012-05-23 00:18:00,0.0,1.8926,0.0008,404.11,0.21,10.3,16.0,138.04,31.43,24.64,36.42,0.96,-27.00,-0.25,-60,553,-929,26.7,14.9,-2.2,26.6,1.3,-31.2,5.73,2.34,-28.1,31.0
2012-05-23 00:19:00,0.0,1.8923,0.0009,404.21,0.21,16.1,21.3,138.04,31.44,24.64,36.42,0.95,-26.97,0.62,-60,553,-929,26.7,14.9,-2.1,26.6,1.3,-31.4,5.73,2.34,-28.1,31.0
2012-05-23 00:20:00,0.0,1.8921,0.0007,404.18,0.18,9.6,16.1,138.04,31.44,24.64,36.42,0.88,-26.95,1.45,-60,553,-929,26.7,14.9,-2.2,26.6,1.3,-31.4,5.73,2.34,-28.1,31.1
2012-05-23 00:21:00,0.0,1.8927,0.0010,404.21,0.17,10.4,16.6,138.04,31.44,24.64,36.42,0.87,-26.93,2.21,-60,553,-929,26.7,14.9,-2.2,26.6,1.3,-31.4,5.73,2.35,-28.1,31.1
2012-05-23 00:22:00,0.0,1.8923,0.0009,404.24,0.17,14.6,21.7,138.04,31.44,24.64,36.41,0.89,-26.90,2.89,-60,553,-929,26.7,14.9,-2.2,26.6,1.3,-31.4,5.73,2.35,-28.1,31.1
2012-05-23 00:23:00,0.0,1.8923,0.0009,404.21,0.23,15.8,22.5,138.04,31.44,24.64,36.41,0.92,-26.88,3.31,-60,553,-929,26.7,14.9,-2.2,26.6,1.3,-31.4,5.73,2.34,-28.1,31.1
2012-05-23 00:24:00,0.0,1.8924,0.0011,404.18,0.20,12.7,18.4,138.04,31.44,24.64,36.42,0.93,-26.86,3.73,-60,553,-929,26.7,14.9,-2.2,26.7,1.3,-31.4,5.73,2.34,-28.0,31.1
2012-05-23 00:25:00,0.0,1.8920,0.0008,404.24,0.22,16.2,20.2,138.04,31.45,24.64,36.42,0.95,-26.84,4.22,-60,553,-929,26.7,15.0,-2.1,26.7,1.3,-31.4,5.73,2.34,-28.0,31.1
2012-05-23 00:26:00,0.0,1.8919,0.0009,404.18,0.18,16.2,21.3,138.04,31.45,24.64,36.42,0.96,-26.81,4.81,-60,553,-929,26.7,15.0,-2.1,26.7,1.3,-31.3,5.73,2.34,-28.1,31.1
2012-05-23 00:27:00,0.0,1.8918,0.0010,404.25,0.20,18.1,20.2,138.04,31.45,24.64,36.42,0.96,-26.79,5.40,-60,553,-929,26.8,15.0,-2.0,26.7,1.3,-31.5,5.73,2.35,-28.0,31.1
2012-05-23 00:28:00,0.0,1.8918,0.0008,404.29,0.21,12.5,15.8,138.04,31.46,24.64,36.42,0.93,-26.78,5.98,-60,553,-929,26.7,15.1,-2.0,26.7,1.2,-31.6,5.73,2.34,-28.0,31.0
2012-05-23 00:29:00,0.0,1.8921,0.0009,404.27,0.21,14.0,19.4,138.04,31.46,24.64,36.41,0.88,-26.77,6.53,-60,553,-929,26.8,15.1,-1.9,26.7,1.2,-31.6,5.73,2.34,-28.0,31.1
2012-05-23 00:30:00,0.0,1.8921,0.0008,404.26,0.22,16.5,21.8,138.04,31.46,24.64,36.42,0.91,-26.74,7.05,-60,553,-929,26.8,15.1,-1.9,26.7,1.2,-31.5,5.73,2.34,-28.0,31.1
2012-05-23 00:31:00,0.0,1.8920,0.0009,404.27,0.20,12.1,17.9,138.04,31.46,24.64,36.41,0.90,-26.72,7.54,-60,553,-929,26.8,15.1,-1.9,26.7,1.2,-31.6,5.73,2.34,-28.0,31.1
2012-05-23 00:32:00,0.0,1.8922,0.0009,404.26,0.19,14.1,17.9,138.04,31.47,24.64,36.42,0.92,-26.70,8.00,-60,553,-929,26.8,15.1,-1.9,26.7,1.2,-31.6,5.73,2.34,-28.0,31.1
2012-05-23 00:33:00,0.0,1.8921,0.0008,404.26,0.19,14.4,19.9,138.04,31.47,24.64,36.42,0.93,-26.69,8.46,-60,553,-929,26.8,15.1,-1.9,26.7,1.2,-31.5,5.73,2.34,-28.0,31.1
2012-05-23 00:34:00,0.0,1.8923,0.0009,404.25,0.19,18.8,23.9,138.04,31.47,24.64,36.41,0.94,-26.68,8.87,-60,553,-929,26.8,15.1,-1.9,26.7,1.2,-31.6,5.73,2.34,-28.0,31.1
2012-05-23 00:35:00,0.0,1.8923,0.0008,404.22,0.19,15.7,21.1,138.04,31.48,24.64,36.42,0.96,-26.66,9.29,-60,553,-929,26.8,15.1,-1.9,26.7,1.2,-31.5,5.73,2.34,-28.0,31.1
2012-05-23 00:36:00,0.0,1.8921,0.0009,404.34,0.23,17.6,20.1,138.04,31.48,24.64,36.41,0.97,-26.64,9.69,-60,553,-929,26.8,15.1,-1.9,26.7,1.2,-31.5,5.73,2.34,-28.0,31.1
2012-05-23 00:37:00,0.0,1.8923,0.0011,404.25,0.23,14.1,18.2,138.04,31.48,24.64,36.42,0.97,-26.63,10.08,-60,553,-929,26.8,15.1,-1.9,26.8,1.2,-31.5,5.73,2.34,-28.0,31.2
2012-05-23 00:38:00,0.0,1.8919,0.0010,404.12,0.21,13.3,20.0,138.04,31.48,24.64,36.43,0.95,-26.62,10.46,-60,553,-929,26.8,15.1,-1.9,26.7,1.2,-31.6,5.73,2.34,-28.0,31.2
2012-05-23 00:39:00,0.0,1.8923,0.0009,404.30,0.21,22.0,22.6,138.04,31.49,24.64,36.41,0.91,-26.60,10.84,-60,553,-929,26.8,15.1,-1.9,26.7,1.2,-31.5,5.73,2.34,-27.9,31.2
2012-05-23 00:40:00,0.0,1.8924,0.0008,404.23,0.20,16.6,19.7,138.04,31.49,24.64,36.42,0.89,-26.59,11.19,-60,553,-929,26.8,15.0,-1.9,26.7,1.2,-31.5,5.73,2.34,-28.0,31.2
2012-05-23 00:41:00,0.0,1.8925,0.0009,404.29,0.19,15.9,18.6,138.04,31.49,24.64,36.41,0.91,-26.58,11.53,-60,554,-929,26.8,15.0,-1.9,26.8,1.2,-31.6,5.73,2.34,-27.9,31.2
2012-05-23 00:42:00,0.0,1.8926,0.0008,404.31,0.17,16.9,21.5,138.04,31.50,24.64,36.41,0.92,-26.57,11.86,-60,554,-929,26.9,15.0,-1.9,26.8,1.2,-31.5,5.73,2.34,-27.9,31.2
2012-05-23 00:43:00,0.0,1.8925,0.0009,404.32,0.16,15.0,21.9,138.04,31.50,24.64,36.41,0.92,-26.56,12.18,-60,554,-929,26.9,15.0,-1.9,26.8,1.2,-31.5,5.73,2.34,-27.9,31.2
2012-05-23 00:44:00,0.0,1.8925,0.0008,404.24,0.22,13.1,18.5,138.04,31.50,24.64,36.41,0.94,-26.55,12.48,-60,554,-929,26.9,15.0,-2.0,26.8,1.2,-31.5,5.73,2.34,-27.9,31.2
2012-05-23 00:45:00,0.0,1.8925,0.0010,404.29,0.20,23.4,24.4,138.04,31.51,24.64,36.41,0.95,-26.54,12.78,-60,554,-929,26.9,15.0,-2.0,26.8,1.2,-31.5,5.73,2.34,-27.9,31.2
2012-05-23 00:46:00,0.0,1.8924,0.0009,404.19,0.19,21.7,21.6,138.04,31.51,24.64,36.42,0.95,-26.52,13.06,-60,554,-929,26.9,15.0,-2.0,26.8,1.2,-31.5,5.73,2.34,-27.9,31.2
2012-05-23 00:47:00,0.0,1.8924,0.0009,404.26,0.23,20.0,19.7,138.04,31.51,24.64,36.41,0.96,-26.53,13.33,-60,554,-929,26.9,14.9,-2.0,26.8,1.2,-31.5,5.73,2.34,-27.9,31.2
2012-05-23 00:48:00,0.0,1.8923,0.0008,404.24,0.21,17.1,20.1,138.04,31.51,24.64,36.41,0.95,-26.51,13.58,-60,554,-929,26.9,15.0,-2.0,26.8,1.2,-31.5,5.73,2.34,-27.9,31.1
2012-05-23 00:49:00,0.0,1.8925,0.0010,404.24,0.22,15.8,20.7,138.04,31.52,24.64,36.42,0.95,-26.50,13.82,-60,554,-929,26.9,15.0,-2.0,26.8,1.2,-31.5,5.73,2.34,-27.9,31.1
2012-05-23 00:50:00,0.0,1.8927,0.0009,404.27,0.21,19.8,22.3,138.04,31.52,24.64,36.41,0.92,-26.49,14.06,-60,554,-929,26.9,14.9,-2.0,26.8,1.2,-31.5,5.73,2.34,-27.9,31.1
2012-05-23 00:51:00,0.0,1.8923,0.0010,404.28,0.20,18.4,22.0,138.04,31.52,24.64,36.41,0.90,-26.49,14.30,-60,554,-929,26.9,14.9,-2.0,26.8,1.2,-31.5,5.73,2.34,-27.9,31.1
2012-05-23 00:52:00,0.0,1.8920,0.0010,404.31,0.19,18.5,20.7,138.04,31.52,24.64,36.41,0.89,-26.48,14.51,-60,554,-929,26.9,15.0,-1.9,26.8,1.2,-31.5,5.73,2.34,-27.9,31.2
2012-05-23 00:53:00,0.0,1.8923,0.0009,404.19,0.17,14.4,20.0,138.04,31.52,24.64,36.42,0.93,-26.47,14.72,-60,554,-929,26.9,15.0,-2.0,26.8,1.2,-31.5,5.73,2.34,-27.9,31.2
2012-05-23 00:54:00,0.0,1.8924,0.0008,404.25,0.21,12.9,16.1,138.04,31.53,24.64,36.41,0.92,-26.47,14.91,-60,554,-929,26.9,15.0,-1.9,26.8,1.3,-31.3,5.73,2.34,-27.9,31.1
2012-05-23 00:55:00,0.0,1.8923,0.0010,404.24,0.16,15.4,20.9,138.04,31.53,24.64,36.41,0.92,-26.47,15.10,-60,554,-929,26.9,15.0,-1.9,26.8,1.3,-31.4,5.73,2.34,-27.9,31.1
2012-05-23 00:56:00,0.0,1.8919,0.0009,404.33,0.19,17.5,21.7,138.04,31.53,24.64,36.41,0.94,-26.44,15.29,-60,554,-929,26.9,15.0,-1.9,26.8,1.3,-31.3,5.73,2.34,-27.9,31.1
2012-05-23 00:57:00,0.0,1.8918,0.0008,404.22,0.17,16.2,22.4,138.04,31.53,24.64,36.42,0.94,-26.45,15.46,-60,554,-929,26.9,15.0,-1.9,26.8,1.3,-31.3,5.73,2.34,-27.9,31.1
2012-05-23 00:58:00,0.0,1.8919,0.0009,404.21,0.18,21.7,26.6,138.04,31.53,24.64,36.41,0.96,-26.43,15.62,-60,554,-929,26.9,15.0,-1.9,26.8,1.3,-31.3,5.73,2.35,-27.9,31.2
2012-05-23 00:59:00,0.0,1.8919,0.0008,404.17,0.21,19.5,28.5,138.03,31.53,24.64,36.41,0.96,-26.43,15.79,-60,554,-929,26.9,15.0,-1.9,26.8,1.3,-31.3,5.73,2.34,-27.9,31.2
2012-05-23 01:00:00,0.0,1.8921,0.0008,404.20,0.20,16.4,18.5,138.04,31.53,24.64,36.41,0.96,-26.42,15.94,-60,554,-929,26.9,15.0,-1.9,26.9,1.3,-31.2,5.73,2.34,-27.9,31.2
2012-05-23 01:01:00,0.0,1.8922,0.0011,404.27,0.20,23.9,22.4,138.04,31.54,24.64,36.41,0.96,-26.42,16.09,-60,554,-929,26.9,15.0,-1.9,26.9,1.3,-31.3,5.73,2.34,-27.9,31.2
2012-05-23 01:02:00,0.0,1.8924,0.0011,404.25,0.17,15.7,19.6,138.04,31.54,24.64,36.41,0.95,-26.41,16.22,-60,554,-929,26.9,15.0,-1.9,26.8,1.3,-31.3,5.73,2.35,-27.9,31.2
2012-05-23 01:03:00,0.0,1.8920,0.0009,404.20,0.21,24.6,25.8,138.04,31.54,24.64,36.41,0.94,-26.41,16.36,-60,554,-929,26.9,15.0,-1.9,26.9,1.3,-31.3,5.73,2.34,-27.9,31.2
2012-05-23 01:04:00,0.0,1.8926,0.0008,404.20,0.19,20.8,22.9,138.04,31.54,24.64,36.41,0.90,-26.41,16.48,-60,554,-929,26.9,15.0,-1.9,26.9,1.3,-31.3,5.73,2.34,-27.9,31.2
2012-05-23 01:05:00,0.0,1.8924,0.0008,404.26,0.21,18.3,22.4,138.03,31.55,24.64,36.41,0.92,-26.40,16.60,-60,554,-929,26.9,15.0,-1.9,26.9,1.3,-31.3,5.73,2.34,-27.9,31.1
2012-05-23 01:06:00,0.0,1.8922,0.0009,404.19,0.25,16.1,18.7,138.03,31.55,24.64,36.41,0.91,-26.39,16.72,-60,554,-929,26.9,15.0,-1.9,26.9,1.3,-31.2,5.73,2.34,-27.9,31.1
2012-05-23 01:07:00,0.0,1.8922,0.0008,404.23,0.23,15.9,22.7,138.03,31.55,24.64,36.41,0.92,-26.40,16.83,-60,554,-929,26.9,15.0,-1.9,26.9,1.3,-31.3,5.73,2.33,-27.9,31.1
2012-05-23 01:08:00,0.0,1.8916,0.0009,404.23,0.19,21.9,23.0,138.03,31.56,24.64,36.41,0.92,-26.38,16.93,-60,554,-929,26.9,15.0,-1.9,26.9,1.3,-31.3,5.73,2.34,-27.9,31.1
2012-05-23 01:09:00,0.0,1.8923,0.0010,404.13,0.21,21.1,21.0,138.03,31.56,24.64,36.42,0.91,-26.38,17.04,-60,554,-929,26.9,15.0,-1.9,26.9,1.3,-31.3,5.73,2.34,-27.9,31.0
2012-05-23 01:10:00,0.0,1.8921,0.0010,404.16,0.19,18.7,18.9,138.03,31.56,24.64,36.42,0.96,-26.38,17.14,-60,554,-929,26.9,15.0,-1.9,26.9,1.3,-31.3,5.73,2.34,-27.9,31.1
2012-05-23 01:11:00,0.0,1.8922,0.0010,404.27,0.20,18.3,20.7,138.04,31.57,24.64,36.41,0.95,-26.38,17.23,-60,554,-929,26.9,15.0,-1.9,26.9,1.3,-31.2,5.73,2.34,-27.9,31.0
2012-05-23 01:12:00,0.0,1.8926,0.0009,404.25,0.21,17.4,19.5,138.03,31.57,24.64,36.41,0.95,-26.37,17.31,-60,554,-929,26.9,15.0,-1.9,26.9,1.3,-31.3,5.73,2.34,-27.9,31.0
2012-05-23 01:13:00,0.0,1.8920,0.0008,404.16,0.18,23.4,23.7,138.04,31.57,24.64,36.41,0.96,-26.37,17.40,-60,554,-929,26.9,15.0,-1.9,26.9,1.3,-31.3,5.73,2.34,-27.9,31.1
2012-05-23 01:14:00,0.0,1.8922,0.0010,404.21,0.18,20.5,25.7,138.04,31.58,24.64,36.41,0.96,-26.36,17.49,-60,554,-929,26.9,15.0,-1.9,26.9,1.3,-31.3,5.73,2.34,-27.9,31.1
2012-05-23 01:15:00,0.0,1.8920,0.0012,404.23,0.20,23.1,24.0,138.03,31.58,24.64,36.41,0.96,-26.36,17.56,-60,554,-929,27.0,15.0,-1.9,26.9,1.3,-31.2,5.73,2.33,-27.8,31.1
2012-05-23 01:16:00,0.0,1.8916,0.0010,404.19,0.22,25.0,24.5,138.03,31.58,24.65,36.41,0.96,-26.36,17.64,-60,554,-929,26.9,15.0,-1.9,26.9,1.3,-31.2,5.73,2.34,-27.8,31.1
2012-05-23 01:17:00,0.0,1.8919,0.0009,404.35,0.19,25.2,24.6,138.03,31.58,24.64,36.40,0.94,-26.36,17.71,-60,554,-929,26.9,15.0,-1.9,26.9,1.3,-31.3,5.73,2.34,-27.8,31.1
2012-05-23 01:18:00,0.0,1.8925,0.0010,404.25,0.18,24.3,24.7,138.03,31.58,24.64,36.41,0.95,-26.36,17.78,-60,554,-929,27.0,15.0,-1.9,26.9,1.3,-31.2,5.73,2.35,-27.8,31.1
2012-05-23 01:19:00,0.0,1.8921,0.0008,404.17,0.16,18.8,20.9,138.03,31.58,24.64,36.41,0.91,-26.36,17.84,-60,554,-929,27.0,15.0,-1.9,26.9,1.3,-31.2,5.73,2.34,-27.8,31.1
2012-05-23 01:20:00,0.0,1.8922,0.0010,404.22,0.23,21.7,24.4,138.03,31.58,24.64,36.41,0.92,-26.36,17.91,-60,555,-929,27.0,15.0,-1.9,26.9,1.3,-31.4,5.73,2.34,-27.8,31.1
2012-05-23 01:21:00,0.0,1.8924,0.0010,404.19,0.24,23.6,27.0,138.03,31.59,24.64,36.41,0.92,-26.36,17.97,-60,554,-929,27.0,15.0,-1.9,26.9,1.2,-31.5,5.73,2.35,-27.8,31.1
2012-05-23 01:22:00,0.0,1.8920,0.0011,404.26,0.21,22.6,24.4,138.03,31.59,24.64,36.40,0.93,-26.36,18.02,-60,555,-929,27.0,15.0,-1.8,26.9,1.2,-31.5,5.73,2.34,-27.8,31.1
2012-05-23 01:23:00,0.0,1.8921,0.0009,404.22,0.25,24.0,26.2,138.03,31.59,24.64,36.41,0.93,-26.35,18.08,-60,555,-929,27.0,15.1,-1.8,26.9,1.2,-31.4,5.73,2.34,-27.8,31.1
2012-05-23 01:24:00,0.0,1.8921,0.0009,404.19,0.19,20.6,24.3,138.03,31.59,24.64,36.41,0.93,-26.35,18.13,-60,554,-929,27.0,15.0,-1.8,26.9,1.2,-31.5,5.73,2.35,-27.8,31.1
2012-05-23 01:25:00,0.0,1.8922,0.0008,404.20,0.20,22.7,26.9,138.03,31.60,24.64,36.41,0.94,-26.35,18.18,-60,555,-929,27.0,15.1,-1.8,26.9,1.2,-31.4,5.73,2.34,-27.8,31.0
2012-05-23 01:26:00,0.0,1.8921,0.0010,404.22,0.16,24.1,24.1,138.03,31.60,24.64,36.41,0.94,-26.35,18.23,-60,555,-929,27.0,15.1,-1.8,26.9,1.2,-31.5,5.73,2.34,-27.8,31.0
2012-05-23 01:27:00,0.0,1.8916,0.0007,404.13,0.20,22.2,26.5,138.03,31.60,24.64,36.41,0.95,-26.35,18.28,-60,555,-930,27.0,15.1,-1.8,26.9,1.2,-31.5,5.73,2.35,-27.8,31.0
2012-05-23 01:28:00,0.0,1.8919,0.0010,404.24,0.19,24.7,24.6,138.03,31.60,24.64,36.40,0.95,-26.34,18.32,-60,555,-929,27.0,15.1,-1.8,26.9,1.2,-31.4,5.73,2.35,-27.8,31.1
2012-05-23 01:29:00,0.0,1.8923,0.0010,404.18,0.19,16.5,20.2,138.03,31.61,24.64,36.41,0.96,-26.35,18.36,-60,555,-929,27.0,15.1,-1.8,26.9,1.2,-31.5,5.73,2.35,-27.8,31.1
2012-05-23 01:30:00,0.0,1.8921,0.0009,404.23,0.19,29.2,26.2,138.03,31.61,24.64,36.41,0.95,-26.35,18.41,-60,555,-929,27.0,15.1,-1.8,26.9,1.2,-31.4,5.73,2.35,-27.8,31.1
2012-05-23 01:31:00,0.0,1.8921,0.0007,404.27,0.21,24.3,27.9,138.03,31.61,24.64,36.40,0.96,-26.35,18.45,-60,555,-929,27.0,15.1,-1.7,26.9,1.2,-31.4,5.73,2.35,-27.8,31.1
2012-05-23 01:32:00,0.0,1.8920,0.0009,404.28,0.23,27.8,25.0,138.03,31.61,24.64,36.40,0.96,-26.34,18.48,-60,555,-929,27.0,15.2,-1.7,26.9,1.2,-31.5,5.73,2.35,-27.8,31.1
2012-05-23 01:33:00,0.0,1.8922,0.0010,404.27,0.20,24.7,25.6,138.03,31.62,24.64,36.40,0.94,-26.34,18.52,-60,555,-930,27.0,15.2,-1.7,26.9,1.2,-31.4,5.73,2.35,-27.8,31.0
2012-05-23 01:34:00,0.0,1.8920,0.0009,404.19,0.25,24.2,25.6,138.03,31.62,24.64,36.41,0.94,-26.34,18.56,-60,555,-929,27.0,15.2,-1.7,26.9,1.2,-31.4,5.73,2.35,-27.8,31.0
2012-05-23 01:35:00,0.0,1.8923,0.0009,404.24,0.23,20.9,24.3,138.03,31.62,24.64,36.41,0.92,-26.33,18.59,-60,555,-929,27.0,15.2,-1.7,26.9,1.2,-31.4,5.73,2.35,-27.8,31.1
2012-05-23 01:36:00,0.0,1.8923,0.0009,404.21,0.25,21.5,24.9,138.03,31.62,24.64,36.41,0.92,-26.33,18.62,-60,555,-929,27.0,15.1,-1.7,26.9,1.2,-31.5,5.73,2.34,-27.8,31.1
2012-05-23 01:37:00,0.0,1.8921,0.0010,404.23,0.19,26.5,25.1,138.03,31.62,24.64,36.41,0.92,-26.33,18.65,-60,555,-929,27.0,15.2,-1.7,26.9,1.2,-31.4,5.73,2.35,-27.7,31.0
2012-05-23 01:38:00,0.0,1.8922,0.0009,404.21,0.23,28.0,25.7,138.03,31.63,24.64,36.41,0.94,-26.33,18.68,-60,555,-929,27.0,15.2,-1.7,27.0,1.2,-31.4,5.73,2.35,-27.7,31.0
2012-05-23 01:39:00,0.0,1.8923,0.0010,404.19,0.24,33.1,25.0,138.03,31.63,24.64,36.41,0.93,-26.33,18.70,-60,555,-929,27.0,15.2,-1.7,26.9,1.2,-31.5,5.73,2.34,-27.7,31.0
2012-05-23 01:40:00,0.0,1.8916,0.0011,404.21,0.20,25.5,24.1,138.03,31.63,24.64,36.41,0.92,-26.33,18.73,-60,555,-929,27.0,15.2,-1.7,27.0,1.2,-31.5,5.73,2.34,-27.7,31.0
2012-05-23 01:41:00,0.0,1.8917,0.0009,404.22,0.19,30.6,27.1,138.03,31.63,24.64,36.40,0.93,-26.33,18.76,-60,555,-930,27.0,15.2,-1.7,27.0,1.2,-31.4,5.73,2.34,-27.7,31.0
2012-05-23 01:42:00,0.0,1.8916,0.0011,404.32,0.24,26.8,24.6,138.03,31.64,24.64,36.40,0.95,-26.32,18.78,-60,555,-929,27.1,15.1,-1.7,27.0,1.2,-31.4,5.73,2.34,-27.7,31.1
2012-05-23 01:43:00,0.0,1.8919,0.0011,404.14,0.23,24.8,23.6,138.03,31.64,24.64,36.42,0.93,-26.32,18.81,-60,555,-929,27.1,15.1,-1.7,27.0,1.2,-31.4,5.73,2.34,-27.7,31.1
2012-05-23 01:44:00,0.0,1.8919,0.0011,404.19,0.17,33.7,28.3,138.03,31.64,24.64,36.41,0.94,-26.32,18.82,-60,555,-929,27.1,15.1,-1.7,27.0,1.2,-31.4,5.73,2.34,-27.6,31.2
2012-05-23 01:45:00,0.0,1.8915,0.0009,404.21,0.23,33.1,32.0,138.03,31.64,24.64,36.41,0.95,-26.32,18.86,-60,555,-929,27.1,15.1,-1.7,27.0,1.2,-31.4,5.73,2.34,-27.7,31.1
2012-05-23 01:46:00,0.0,1.8918,0.0010,404.18,0.21,32.6,29.6,138.03,31.64,24.64,36.41,0.95,-26.32,18.87,-60,555,-930,27.1,15.1,-1.7,27.0,1.2,-31.4,5.73,2.34,-27.7,31.1
2012-05-23 01:47:00,0.0,1.8918,0.0009,404.21,0.22,34.1,29.7,138.03,31.65,24.64,36.41,0.96,-26.32,18.90,-60,555,-930,27.1,15.2,-1.7,27.0,1.2,-31.4,5.73,2.35,-27.6,31.1
2012-05-23 01:48:00,0.0,1.8921,0.0009,404.17,0.21,29.1,26.9,138.03,31.65,24.64,36.41,0.96,-26.31,18.91,-60,555,-930,27.1,15.1,-1.6,27.0,1.2,-31.4,5.73,2.34,-27.6,31.1
2012-05-23 01:49:00,0.0,1.8917,0.0012,404.23,0.18,28.0,22.9,138.03,31.65,24.64,36.41,0.95,-26.31,18.93,-60,555,-930,27.1,15.2,-1.6,27.0,1.2,-31.4,5.73,2.35,-27.6,31.2
2012-05-23 01:50:00,0.0,1.8918,0.0012,404.28,0.23,27.6,29.1,138.03,31.66,24.64,36.40,0.95,-26.31,18.95,-60,555,-929,27.1,15.2,-1.6,27.0,1.2,-31.4,5.73,2.35,-27.6,31.2
2012-05-23 01:51:00,0.0,1.8922,0.0012,404.23,0.23,32.4,27.8,138.03,31.66,24.64,36.41,0.92,-26.30,18.97,-60,555,-930,27.1,15.1,-1.6,27.1,1.2,-31.7,5.73,2.35,-27.6,31.2
2012-05-23 01:52:00,0.0,1.8920,0.0013,404.26,0.24,28.9,25.0,138.03,31.66,24.64,36.40,0.92,-26.30,18.98,-61,555,-930,27.1,15.1,-1.6,27.1,1.2,-31.6,5.73,2.35,-27.6,31.3
2012-05-23 01:53:00,0.0,1.8923,0.0009,404.17,0.21,27.0,26.5,138.03,31.66,24.64,36.41,0.90,-26.30,19.00,-61,555,-929,27.2,15.1,-1.6,27.1,1.2,-31.6,5.73,2.35,-27.6,31.3
2012-05-23 01:54:00,0.0,1.8915,0.0009,404.25,0.23,28.3,24.9,138.03,31.67,24.64,36.41,0.93,-26.30,19.02,-61,555,-930,27.2,15.1,-1.6,27.1,1.2,-31.6,5.73,2.35,-27.6,31.3
2012-05-23 01:55:00,0.0,1.8922,0.0010,404.31,0.21,34.7,27.5,138.03,31.67,24.64,36.40,0.93,-26.30,19.03,-61,555,-930,27.2,15.1,-1.6,27.1,1.2,-31.6,5.73,2.35,-27.6,31.2
2012-05-23 01:56:00,0.0,1.8920,0.0011,404.23,0.20,38.1,29.4,138.03,31.67,24.64,36.41,0.93,-26.30,19.04,-61,555,-930,27.2,15.1,-1.6,27.1,1.2,-31.6,5.73,2.35,-27.6,31.2
2012-05-23 01:57:00,0.0,1.8921,0.0009,404.15,0.23,28.9,25.9,138.03,31.68,24.64,36.41,1.15,-26.29,18.47,-61,556,-930,27.2,15.1,-1.6,27.1,1.2,-31.5,5.73,2.34,-27.6,31.2
2012-05-23 01:58:00,0.0,1.8921,0.0013,404.28,0.22,41.4,30.2,138.03,31.68,24.64,36.40,1.11,-26.28,16.44,-61,555,-930,27.2,15.1,-1.6,27.2,1.2,-31.6,5.73,2.34,-27.6,31.3
2012-05-23 01:59:00,0.0,1.8922,0.0012,404.20,0.25,40.3,29.2,138.03,31.68,24.64,36.41,0.95,-26.29,14.05,-61,556,-930,27.2,15.1,-1.6,27.1,1.2,-31.6,5.73,2.34,-27.5,31.3
2012-05-23 02:00:00,0.0,1.8922,0.0010,404.16,0.26,39.1,28.8,138.03,31.69,24.64,36.40,1.03,-26.30,11.64,-61,556,-930,27.2,15.1,-1.6,27.2,1.2,-31.6,5.73,2.34,-27.5,31.3
2012-05-23 02:01:00,0.0,1.8919,0.0011,404.22,0.20,44.2,31.4,138.03,31.69,24.64,36.40,1.12,-26.30,9.30,-61,556,-930,27.3,15.0,-1.6,27.1,1.2,-31.6,5.73,2.34,-27.5,31.3
2012-05-23 02:02:00,0.0,1.8922,0.0011,404.14,0.22,41.0,31.1,138.03,31.70,24.64,36.41,1.05,-26.30,7.04,-61,556,-930,27.3,15.0,-1.6,27.2,1.2,-31.5,5.73,2.34,-27.5,31.4
2012-05-23 02:03:00,0.0,1.8921,0.0012,404.21,0.21,39.8,26.8,138.03,31.70,24.64,36.40,1.00,-26.30,4.89,-61,556,-930,27.3,15.0,-1.6,27.2,1.2,-31.5,5.73,2.34,-27.5,31.4
2012-05-23 02:04:00,0.0,1.8919,0.0010,404.22,0.24,43.3,29.5,138.03,31.70,24.64,36.40,1.09,-26.31,2.86,-61,556,-930,27.3,15.0,-1.7,27.2,1.2,-31.6,5.73,2.34,-27.5,31.3
2012-05-23 02:05:00,0.0,1.8920,0.0008,404.13,0.17,36.6,24.9,138.03,31.71,24.64,36.41,1.08,-26.30,0.91,-61,556,-930,27.3,15.0,-1.6,27.2,1.2,-31.6,5.73,2.34,-27.5,31.4
2012-05-23 02:06:00,0.0,1.8919,0.0010,404.16,0.20,41.4,30.6,138.03,31.71,24.64,36.41,1.00,-26.30,-0.83,-61,556,-930,27.3,15.0,-1.6,27.2,1.2,-31.6,5.73,2.34,-27.5,31.4
2012-05-23 02:07:00,0.0,1.8922,0.0008,404.21,0.20,39.6,28.5,138.03,31.72,24.64,36.41,1.04,-26.29,-2.54,-61,556,-930,27.3,15.0,-1.6,27.2,1.2,-31.5,5.73,2.34,-27.4,31.3
2012-05-23 02:08:00,0.0,1.8923,0.0010,404.22,0.22,42.4,32.6,138.03,31.72,24.64,36.41,1.11,-26.29,-4.18,-61,556,-930,27.3,15.0,-1.6,27.3,1.2,-31.5,5.73,2.34,-27.4,31.4
2012-05-23 02:09:00,0.0,1.8923,0.0009,404.30,0.22,43.9,29.8,138.03,31.73,24.64,36.40,1.03,-26.29,-5.71,-61,556,-930,27.3,15.0,-1.6,27.3,1.2,-31.5,5.73,2.34,-27.4,31.4
2012-05-23 02:10:00,0.0,1.8926,0.0009,404.26,0.22,41.9,31.7,138.03,31.74,24.64,36.41,0.99,-26.30,-7.10,-61,556,-930,27.3,15.0,-1.6,27.3,1.2,-31.5,5.73,2.34,-27.4,31.4
2012-05-23 02:11:00,0.0,1.8922,0.0010,404.23,0.24,43.5,29.6,138.03,31.74,24.64,36.41,1.06,-26.31,-8.40,-61,556,-930,27.3,15.0,-1.6,27.3,1.2,-31.5,5.73,2.34,-27.4,31.4
2012-05-23 02:12:00,0.0,1.8918,0.0010,404.26,0.19,40.2,27.4,138.03,31.75,24.64,36.41,1.09,-26.31,-9.63,-61,556,-930,27.3,15.0,-1.6,27.3,1.2,-31.5,5.73,2.34,-27.4,31.4
2012-05-23 02:13:00,0.0,1.8925,0.0009,404.24,0.20,47.5,31.0,138.03,31.75,24.64,36.41,1.00,-26.31,-10.82,-61,556,-930,27.4,15.0,-1.6,27.3,1.2,-31.5,5.73,2.34,-27.4,31.5
2012-05-23 02:14:00,0.0,1.8926,0.0009,404.22,0.20,52.5,27.1,138.02,31.75,24.64,36.41,1.00,-26.32,-11.94,-61,556,-930,27.4,14.9,-1.6,27.3,1.2,-31.7,5.73,2.34,-27.4,31.5
2012-05-23 02:15:00,0.0,1.8924,0.0009,404.10,0.23,47.1,26.8,138.02,31.76,24.64,36.42,1.06,-26.32,-13.01,-61,556,-930,27.4,14.9,-1.6,27.3,1.2,-31.7,5.73,2.35,-27.4,31.5
2012-05-23 02:16:00,0.0,1.8923,0.0009,404.31,0.20,44.8,29.5,138.02,31.77,24.64,36.40,1.08,-26.32,-14.01,-61,556,-930,27.4,14.9,-1.6,27.4,1.2,-31.7,5.73,2.34,-27.4,31.5
2012-05-23 02:17:00,0.0,1.8927,0.0008,404.26,0.21,51.7,32.2,138.02,31.77,24.64,36.41,1.01,-26.33,-14.93,-61,556,-930,27.5,14.9,-1.6,27.4,1.2,-31.7,5.73,2.34,-27.3,31.5
2012-05-23 02:18:00,0.0,1.8926,0.0009,404.15,0.21,53.9,31.9,138.02,31.78,24.64,36.41,1.00,-26.34,-15.81,-61,557,-930,27.5,14.9,-1.6,27.4,1.2,-31.7,5.73,2.34,-27.3,31.5
2012-05-23 02:19:00,0.0,1.8927,0.0008,404.23,0.18,52.5,28.2,138.02,31.79,24.64,36.41,1.07,-26.35,-16.56,-61,557,-930,27.5,14.9,-1.6,27.4,1.2,-31.7,5.73,2.34,-27.3,31.6
2012-05-23 02:20:00,0.0,1.8930,0.0009,404.16,0.21,56.4,31.0,138.02,31.80,24.64,36.41,1.07,-26.36,-17.31,-61,557,-930,27.5,14.9,-1.6,27.4,1.2,-31.7,5.73,2.34,-27.4,31.5